Weather History for Lancaster, OH

Change the Weather History Date:

Saturday, December 15, 2012

  Actual Average Record
Temperature  
Mean Temperature 40 °F -  
Max Temperature 50 °F 42 °F 63 °F (1984)
Min Temperature 30 °F 24 °F -4 °F (1958)
Degree Days  
Heating Degree Days 25    
Moisture  
Dew Point 31 °F    
Average Humidity 70    
Maximum Humidity 89    
Minimum Humidity 50    
Precipitation  
Precipitation 0.00 in - - ()
Sea Level Pressure  
Sea Level Pressure 30.04 in    
Wind  
Wind Speed 3 mph (SSE)    
Max Wind Speed 10 mph    
Max Gust Speed -    
Visibility 10 miles    
Events Rain    
Averages and records for this station are not official NWS values.
T = Trace of Precipitation, MM = Missing Value Source: NWS Daily Summary

Daily Weather History Graph

Daily Weather History Graph

Search for Another Location

Airport:

Trip Planner

Search our weather history database for the weather conditions in past years. The results will help you decide how hot, cold, wet, or windy it might be!

Date:

Astronomy

Dec. 15, 2012 Rise Set
Actual Time 7:44 AM EST 5:07 PM EST
Civil Twilight 7:14 AM EST 5:37 PM EST
Nautical Twilight 6:40 AM EST 6:11 PM EST
Astronomical Twilight 6:07 AM EST 6:44 PM EST
Moon 9:37 AM EST (12/15) 8:09 PM EST (12/15)
Length of Visible Light 10h 23m
Length of Day
9h 22m
Waxing Crescent, 8% of the Moon is Illuminated
Dec 15
Waxing Crescent
Dec 20
First Quarter
Dec 28
Full
Jan 4
Last Quarter
Jan 11
New

Hourly Weather History & Observations

Time (EST) Temp. Windchill Dew Point Humidity Pressure Visibility Wind Dir Wind Speed Gust Speed Precip Events Conditions
12:53 AM 30.9 °F - 28.0 °F 89% 30.20 in 10.0 mi Calm Calm - N/A   Clear
1:53 AM 30.9 °F - 27.0 °F 85% 30.20 in 10.0 mi Calm Calm - N/A   Clear
2:53 AM 30.9 °F - 28.0 °F 89% 30.19 in 10.0 mi Calm Calm - N/A   Clear
3:53 AM 32.0 °F - 28.0 °F 85% 30.19 in 10.0 mi Calm Calm - N/A   Clear
4:53 AM 32.0 °F - 28.0 °F 85% 30.17 in 10.0 mi Calm Calm - N/A   Clear
5:53 AM 30.9 °F - 26.1 °F 82% 30.16 in 10.0 mi Calm Calm - N/A   Clear
6:53 AM 30.9 °F - 26.1 °F 82% 30.15 in 10.0 mi Calm Calm - N/A   Partly Cloudy
7:53 AM 33.1 °F - 28.9 °F 85% 30.18 in 9.0 mi Calm Calm - N/A   Clear
8:53 AM 35.1 °F - 28.9 °F 78% 30.19 in 10.0 mi Calm Calm - N/A   Clear
9:53 AM 39.9 °F 37.8 °F 30.9 °F 70% 30.14 in 10.0 mi East 3.5 mph - N/A   Scattered Clouds
10:53 AM 42.1 °F 37.7 °F 28.0 °F 58% 30.11 in 10.0 mi SSE 6.9 mph - N/A   Scattered Clouds
11:53 AM 45.0 °F 40.6 °F 28.9 °F 53% 30.06 in 10.0 mi SSE 8.1 mph - N/A   Clear
12:53 PM 46.9 °F - 30.0 °F 52% 30.06 in 10.0 mi South 3.5 mph - N/A   Scattered Clouds
1:53 PM 50.0 °F - 32.0 °F 50% 30.02 in 10.0 mi South 5.8 mph - N/A   Overcast
2:53 PM 48.0 °F - 34.0 °F 58% 29.94 in 10.0 mi SSE 10.4 mph - 0.00 in   Mostly Cloudy
3:53 PM 50.0 °F - 34.0 °F 54% 29.94 in 10.0 mi SE 9.2 mph - N/A   Mostly Cloudy
4:53 PM 48.9 °F - 34.0 °F 56% 29.94 in 10.0 mi SSE 8.1 mph - N/A   Overcast
5:53 PM 46.9 °F - 37.0 °F 68% 29.92 in 10.0 mi SSE 6.9 mph - 0.00 in Rain Light Rain
6:53 PM 46.0 °F 41.9 °F 37.0 °F 71% 29.90 in 10.0 mi SSE 8.1 mph - 0.00 in   Overcast
7:53 PM 46.0 °F 41.0 °F 36.0 °F 68% 29.88 in 10.0 mi SE 10.4 mph - N/A   Overcast
8:53 PM 46.9 °F - 36.0 °F 66% 29.88 in 10.0 mi SE 8.1 mph - N/A   Overcast
9:53 PM 48.0 °F - 36.0 °F 63% 29.87 in 10.0 mi SE 8.1 mph - N/A   Overcast
10:53 PM 48.9 °F - 36.0 °F 61% 29.85 in 10.0 mi SE 10.4 mph - N/A   Overcast
11:53 PM 48.9 °F - 37.0 °F 64% 29.83 in 10.0 mi SSE 3.5 mph - N/A   Overcast